When you browse on this site, cookies collect data to enhance your experience and personalize the content and advertising you see.
Visit our Privacy Policy to learn more. By continuing to use the site, you agree to this use of cookies and data.
  • In Deutschland
  • Länderverzeichnis
  • Für 7 Tage
  • Wassertemperatur
  • Wetterkarte
  • Widgets
  • user-avatar
    Anmelden

    Stündliche Wetter Kytlym

    Heute, 15 Oktober, Dienstag

    Zeit Temperatur Niederschläge Wind Luftdruck Luftfeuchtigkeit
    00:00 +3°C° 0.1 mm 3 m/S 714 mmHg 91%
    01:00 +3°C° 0.1 mm 3 m/S 715 mmHg 90%
    02:00 +3°C° 0.1 mm 3 m/S 715 mmHg 91%
    03:00 +2°C° 0.1 mm 3 m/S 715 mmHg 93%
    04:00 +3°C° 0 mm 2 m/S 715 mmHg 94%
    05:00 +3°C° 0.3 mm 2 m/S 715 mmHg 94%
    06:00 +2°C° 0.3 mm 3 m/S 716 mmHg 94%
    07:00 +2°C° 0.3 mm 3 m/S 716 mmHg 95%
    08:00 +2°C° 0.1 mm 3 m/S 716 mmHg 94%
    09:00 +2°C° 0.1 mm 3 m/S 716 mmHg 92%
    10:00 +2°C° 0.1 mm 3 m/S 716 mmHg 91%
    11:00 +2°C° 0.1 mm 3 m/S 716 mmHg 92%
    12:00 +2°C° 0.1 mm 3 m/S 716 mmHg 93%
    13:00 +2°C° 0.1 mm 3 m/S 716 mmHg 93%
    14:00 +1°C° 0.1 mm 3 m/S 716 mmHg 92%
    15:00 +1°C° 0.1 mm 3 m/S 717 mmHg 90%
    16:00 +1°C° 0.1 mm 3 m/S 717 mmHg 89%
    17:00 +1°C° 0 mm 2 m/S 717 mmHg 90%
    18:00 +1°C° 0 mm 2 m/S 717 mmHg 91%
    19:00 -1°C° 0 mm 2 m/S 717 mmHg 92%
    20:00 -1°C° 0 mm 2 m/S 718 mmHg 92%
    21:00 -1°C° 0 mm 2 m/S 718 mmHg 92%
    22:00 -1°C° 0 mm 2 m/S 718 mmHg 92%
    23:00 -1°C° 0.1 mm 2 m/S 718 mmHg 93%

    Morgen, 16 Oktober, Mittwoch

    Zeit Temperatur Niederschläge Wind Luftdruck Luftfeuchtigkeit
    00:00 -1°C° 0.1 mm 2 m/S 719 mmHg 93%
    01:00 -1°C° 0.1 mm 2 m/S 719 mmHg 93%
    02:00 -1°C° 0.1 mm 2 m/S 719 mmHg 92%
    03:00 -1°C° 0.1 mm 3 m/S 720 mmHg 92%
    04:00 -1°C° 0.1 mm 3 m/S 720 mmHg 91%
    05:00 -1°C° 0.1 mm 3 m/S 721 mmHg 91%
    06:00 -1°C° 0.1 mm 3 m/S 721 mmHg 90%
    07:00 -1°C° 0.1 mm 3 m/S 721 mmHg 90%
    08:00 -1°C° 0.1 mm 3 m/S 722 mmHg 86%
    09:00 0°C° 0.1 mm 3 m/S 722 mmHg 83%
    10:00 0°C° 0.1 mm 3 m/S 723 mmHg 79%
    11:00 -1°C° 0 mm 4 m/S 723 mmHg 78%
    12:00 -1°C° 0 mm 4 m/S 724 mmHg 78%
    13:00 -1°C° 0 mm 4 m/S 724 mmHg 78%
    14:00 -1°C° 0.1 mm 4 m/S 725 mmHg 80%
    15:00 -1°C° 0.1 mm 4 m/S 725 mmHg 82%
    16:00 0°C° 0.1 mm 3 m/S 725 mmHg 85%
    17:00 -1°C° 0.1 mm 3 m/S 726 mmHg 86%
    18:00 -1°C° 0.1 mm 3 m/S 726 mmHg 88%
    19:00 -2°C° 0.1 mm 3 m/S 726 mmHg 90%
    20:00 -2°C° 0.1 mm 3 m/S 727 mmHg 89%
    21:00 -2°C° 0.1 mm 3 m/S 727 mmHg 89%
    22:00 -2°C° 0.1 mm 3 m/S 727 mmHg 89%
    23:00 -2°C° 0 mm 3 m/S 727 mmHg 89%

    übermorgen, 17 Oktober, Donnerstag

    Zeit Temperatur Niederschläge Wind Luftdruck Luftfeuchtigkeit
    00:00 -2°C° 0 mm 3 m/S 728 mmHg 89%
    01:00 -2°C° 0 mm 3 m/S 728 mmHg 89%
    02:00 -4°C° 0 mm 3 m/S 728 mmHg 89%
    03:00 -4°C° 0 mm 3 m/S 729 mmHg 89%
    04:00 -4°C° 0 mm 3 m/S 729 mmHg 88%
    05:00 -3°C° 0 mm 2 m/S 729 mmHg 89%
    06:00 -3°C° 0 mm 2 m/S 729 mmHg 90%
    07:00 -3°C° 0 mm 2 m/S 729 mmHg 90%
    08:00 -2°C° 0 mm 2 m/S 729 mmHg 84%
    09:00 -2°C° 0 mm 2 m/S 729 mmHg 79%
    10:00 -1°C° 0 mm 2 m/S 729 mmHg 73%
    11:00 -1°C° 0 mm 2 m/S 729 mmHg 72%
    12:00 -1°C° 0 mm 2 m/S 729 mmHg 71%
    13:00 -1°C° 0 mm 2 m/S 729 mmHg 70%
    14:00 +1°C° 0 mm 1 m/S 728 mmHg 73%
    15:00 +1°C° 0 mm 1 m/S 728 mmHg 76%
    16:00 +1°C° 0 mm 1 m/S 728 mmHg 79%
    17:00 0°C° 0 mm 1 m/S 727 mmHg 82%
    18:00 -1°C° 0 mm 0 m/S 727 mmHg 86%
    19:00 -2°C° 0 mm 0 m/S 727 mmHg 89%
    20:00 -2°C° 0.2 mm 0 m/S 726 mmHg 91%
    21:00 -1°C° 0.2 mm 1 m/S 726 mmHg 93%
    22:00 -1°C° 0.2 mm 1 m/S 725 mmHg 95%
    23:00 -1°C° 0.3 mm 1 m/S 725 mmHg 95%

    18 Oktober, Freitag

    Zeit Temperatur Niederschläge Wind Luftdruck Luftfeuchtigkeit
    00:00 -1°C° 0.3 mm 1 m/S 724 mmHg 95%
    01:00 -3°C° 0.3 mm 2 m/S 724 mmHg 95%
    02:00 -3°C° 0.5 mm 2 m/S 724 mmHg 95%
    03:00 -4°C° 0.5 mm 3 m/S 724 mmHg 95%
    04:00 -4°C° 0.5 mm 3 m/S 724 mmHg 94%
    05:00 -5°C° 0.5 mm 3 m/S 724 mmHg 93%
    06:00 -7°C° 0.5 mm 4 m/S 725 mmHg 92%
    07:00 -7°C° 0.5 mm 4 m/S 725 mmHg 91%
    08:00 -7°C° 0.1 mm 4 m/S 726 mmHg 88%
    09:00 -7°C° 0.1 mm 4 m/S 727 mmHg 84%
    10:00 -7°C° 0.1 mm 4 m/S 728 mmHg 80%
    11:00 -5°C° 0 mm 4 m/S 728 mmHg 77%
    12:00 -5°C° 0 mm 4 m/S 729 mmHg 75%
    13:00 -5°C° 0 mm 3 m/S 730 mmHg 72%
    14:00 -5°C° 0 mm 3 m/S 730 mmHg 74%
    15:00 -5°C° 0 mm 3 m/S 731 mmHg 76%
    16:00 -5°C° 0 mm 2 m/S 731 mmHg 78%
    17:00 -5°C° 0 mm 2 m/S 732 mmHg 81%
    18:00 -6°C° 0 mm 2 m/S 732 mmHg 85%
    19:00 -6°C° 0 mm 1 m/S 733 mmHg 88%
    20:00 -6°C° 0 mm 1 m/S 733 mmHg 89%
    21:00 -7°C° 0 mm 1 m/S 734 mmHg 90%
    22:00 -7°C° 0 mm 0 m/S 734 mmHg 91%
    23:00 -7°C° 0 mm 0 m/S 734 mmHg 91%

    19 Oktober, Samstag

    Zeit Temperatur Niederschläge Wind Luftdruck Luftfeuchtigkeit
    00:00 -8°C° 0 mm 1 m/S 735 mmHg 91%
    01:00 -8°C° 0 mm 1 m/S 735 mmHg 91%
    02:00 -8°C° 0 mm 1 m/S 735 mmHg 91%
    03:00 -8°C° 0 mm 1 m/S 735 mmHg 90%
    04:00 -8°C° 0 mm 1 m/S 735 mmHg 90%
    05:00 -8°C° 0 mm 1 m/S 736 mmHg 90%
    06:00 -8°C° 0 mm 1 m/S 736 mmHg 90%
    07:00 -8°C° 0 mm 1 m/S 736 mmHg 90%
    08:00 -6°C° 0 mm 1 m/S 736 mmHg 85%
    09:00 -6°C° 0 mm 2 m/S 736 mmHg 79%
    10:00 -4°C° 0 mm 2 m/S 737 mmHg 73%
    11:00 -3°C° 0 mm 2 m/S 737 mmHg 72%
    12:00 -3°C° 0 mm 2 m/S 736 mmHg 70%
    13:00 -2°C° 0 mm 2 m/S 736 mmHg 68%
    14:00 -3°C° 0 mm 2 m/S 736 mmHg 72%
    15:00 -3°C° 0 mm 2 m/S 736 mmHg 76%
    16:00 -4°C° 0 mm 2 m/S 736 mmHg 80%
    17:00 -5°C° 0 mm 2 m/S 736 mmHg 84%
    18:00 -5°C° 0 mm 2 m/S 735 mmHg 88%
    19:00 -6°C° 0 mm 2 m/S 735 mmHg 92%
    20:00 -6°C° 0 mm 2 m/S 735 mmHg 91%
    21:00 -6°C° 0 mm 2 m/S 735 mmHg 90%
    22:00 -6°C° 0 mm 2 m/S 735 mmHg 90%
    23:00 -7°C° 0 mm 3 m/S 735 mmHg 89%

    20 Oktober, Sonntag

    Zeit Temperatur Niederschläge Wind Luftdruck Luftfeuchtigkeit
    00:00 -7°C° 0 mm 3 m/S 735 mmHg 87%
    01:00 -7°C° 0 mm 3 m/S 734 mmHg 86%
    02:00 -7°C° 0 mm 3 m/S 734 mmHg 86%
    03:00 -6°C° 0 mm 3 m/S 734 mmHg 85%
    04:00 -6°C° 0 mm 3 m/S 734 mmHg 85%
    05:00 -6°C° 0 mm 3 m/S 734 mmHg 85%
    06:00 -6°C° 0 mm 3 m/S 734 mmHg 84%
    07:00 -6°C° 0 mm 3 m/S 734 mmHg 84%
    08:00 -5°C° 0 mm 3 m/S 734 mmHg 83%
    09:00 -4°C° 0 mm 3 m/S 734 mmHg 82%
    10:00 -4°C° 0 mm 3 m/S 734 mmHg 80%
    11:00 -2°C° 0 mm 3 m/S 734 mmHg 80%
    12:00 -2°C° 0 mm 3 m/S 734 mmHg 79%
    13:00 -1°C° 0 mm 3 m/S 734 mmHg 78%
    14:00 -1°C° 0 mm 3 m/S 734 mmHg 81%
    15:00 -2°C° 0 mm 3 m/S 733 mmHg 83%
    16:00 -2°C° 0 mm 3 m/S 733 mmHg 85%
    17:00 -2°C° 0 mm 3 m/S 733 mmHg 87%
    18:00 -2°C° 0 mm 3 m/S 733 mmHg 89%
    19:00 -2°C° 0 mm 3 m/S 733 mmHg 91%
    20:00 -2°C° 0 mm 3 m/S 733 mmHg 92%
    21:00 -2°C° 0 mm 3 m/S 733 mmHg 92%
    22:00 -2°C° 0 mm 3 m/S 733 mmHg 93%
    23:00 -2°C° 0.1 mm 3 m/S 732 mmHg 93%
    Mehr zeigen